#timestamp,LO_Frequency,Hit,StdDev 
1522681215.4,286047001.5,N
1522681235.2,286047001.5,N
1522681255.0,286047001.7,N
1522681255.9,286047001.7,N
1522681275.8,286047004.1,N
1522681295.6,286047001.6,N
1522681315.4,286046999.8,N
1522681335.3,286047004.4,N
1522681355.1,286047001.3,N
1522681375.9,286047001.5,N
1522681395.7,286047001.6,N
1522681415.5,286047001.5,N
1522681435.4,286047002.7,N
1522681455.2,286046999.9,N
1522681475.0,286047001.3,N
1522681475.9,286047001.3,N
1522681495.8,286047004.0,Y
1522681515.6,286047001.6,P
1522681535.5,286047004.3,P
1522681555.3,286047002.9,N
1522681575.1,286047003.4,Y
1522681595.9,286047000.9,P
1522681615.7,286047000.7,N
1522681635.5,286047004.4,P
1522681655.4,286047003.2,N
1522681675.2,286047004.4,Y
1522681695.1,286047001.1,P
1522681696.0,286047001.1,N
1522681715.8,286046999.4,N
1522681735.6,286046996.7,Y
1522681755.5,286046995.5,P
1522681775.3,286046993.8,N
1522681795.2,286046995.7,N
1522681815.9,286046995.8,N
1522681835.7,286046994.8,N
1522681855.6,286046992.1,Y
1522681875.4,286046997.4,P
1522681895.2,286046999.0,N
1522681915.1,286046998.4,N
1522681916.0,286046998.4,N
1522681935.8,286047000.9,N
1522681955.7,286047000.7,N
1522681975.5,286046998.1,N
1522681995.3,286047000.5,N
1522682015.2,286047000.7,N
1522682035.9,286047001.3,N
1522682055.7,286047002.2,N
1522682075.6,286047003.3,N
1522682095.4,286047003.9,N
1522682115.3,286047003.3,N
1522682135.1,286047005.7,N
1522682136.0,286047005.7,N
1522682155.8,286047005.3,N
1522682175.7,286047004.0,N
1522682195.5,286047000.7,N
1522682215.3,286046998.1,N
1522682235.2,286047000.2,N
1522682255.0,286047004.2,N
1522682255.9,286047004.2,N
1522682275.8,286047004.4,N
1522682295.6,286047002.2,N
1522682315.4,286047002.0,N
1522682335.3,286047002.9,N
1522682355.1,286047003.6,N
1522682375.8,286047001.8,N
1522682395.7,286047002.1,N
1522682415.5,286047002.6,N
1522682435.3,286047000.5,N
1522682455.2,286046999.7,N
1522682475.0,286047004.4,N
1522682475.9,286047004.4,N
1522682495.8,286047001.9,N
1522682515.6,286047001.6,N
1522682535.4,286047004.2,N
1522682555.3,286047005.5,N
1522682575.1,286047002.5,N
1522682595.9,286047002.4,N
1522682615.7,286047002.1,N
1522682635.5,286047000.9,N
1522682655.4,286047000.3,N
1522682675.2,286047000.9,N
1522682695.0,286047000.4,N
1522682695.9,286047000.4,N
1522682715.8,286047000.3,N
1522682735.6,286047002.7,N
1522682755.5,286047002.3,N
1522682775.3,286047000.8,N
1522682795.1,286046999.4,N
1522682815.9,286046996.9,N
1522682835.7,286046999.4,N
1522682855.5,286046996.6,N
1522682875.4,286046997.1,N
1522682895.2,286046997.8,N
1522682915.0,286046997.5,N
1522682916.0,286046997.5,N
1522682935.8,286046999.5,N
1522682955.6,286046998.0,N
1522682975.5,286046994.9,N
1522682995.3,286046998.8,N
1522683015.1,286046998.6,N
1522683035.9,286046998.5,N
1522683055.7,286046998.5,N
1522683075.5,286046998.8,N
1522683095.4,286046997.8,N
1522683115.2,286046995.6,N
1522683135.1,286046995.0,N
1522683136.0,286046995.0,N
1522683155.8,286046999.2,N
1522683175.6,286046996.9,N
1522683195.5,286046999.6,N
1522683215.3,286046998.5,N
1522683235.1,286046998.1,N
1522683255.9,286047001.1,N
1522683275.7,286046999.3,N
1522683295.6,286046994.9,N
1522683315.4,286046996.2,N
1522683335.2,286046995.5,N
1522683355.1,286046995.4,N
1522683356.0,286046995.4,N
1522683375.8,286046993.5,Y
1522683395.7,286046997.9,P
1522683415.5,286046995.4,P
1522683435.3,286046995.2,P
1522683455.2,286046995.6,Y
1522683475.0,286046998.1,P
1522683475.9,286046998.1,N
1522683495.7,286046997.1,P
1522683515.6,286046996.6,Y
1522683535.4,286047000.7,P
1522683555.3,286046999.0,N
1522683575.1,286046998.1,N
1522683576.0,286046998.1,N
1522683595.8,286047000.2,N
1522683615.7,286047001.5,N
1522683635.5,286047002.1,N
1522683655.3,286047001.6,N
1522683675.2,286047002.0,N
1522683695.0,286047003.2,N
1522683695.9,286047003.2,N
1522683715.8,286047003.6,N
1522683735.6,286047006.7,Y
1522683755.4,286047006.8,P
1522683775.3,286047003.0,N
1522683795.1,286047004.1,N
1522683815.8,286047001.6,N
1522683835.7,286047001.3,N
1522683855.5,286047006.0,N
1522683875.4,286047006.4,N
1522683895.2,286047005.1,N
1522683915.0,286047004.1,N
1522683915.9,286047004.1,N
1522683935.8,286047001.4,N
1522683955.6,286047002.1,N
1522683975.5,286047003.8,N
1522683995.3,286047002.3,N
1522684015.1,286047004.3,N
1522684035.9,286047001.4,N
1522684055.7,286047001.9,N
1522684075.5,286047004.1,N
1522684095.4,286047003.9,N
1522684115.2,286047003.7,N
1522684135.1,286047003.7,N
1522684136.0,286047003.7,N
1522684155.8,286047002.9,N
1522684175.6,286047004.5,N
1522684195.5,286047006.9,Y
1522684215.3,286047003.9,P
1522684235.1,286047002.3,P
1522684255.9,286047000.3,N
1522684275.7,286046998.7,N
1522684295.6,286046999.4,N
1522684315.4,286047000.9,N
1522684335.2,286047000.4,N
1522684355.1,286046999.9,N
1522684356.0,286046999.9,N
1522684375.8,286046998.3,N
1522684395.6,286047000.5,N
1522684415.5,286047002.0,N
1522684435.3,286047004.4,N
1522684455.2,286047002.1,N
1522684475.9,286047001.5,N
1522684495.7,286047001.6,N
1522684515.6,286047001.3,N
1522684535.4,286047000.6,N
1522684555.2,286046998.1,N
1522684575.1,286047001.2,N
1522684576.0,286047001.2,N
1522684595.8,286046999.9,N
1522684615.7,286047001.2,N
1522684635.5,286046998.1,N
1522684655.3,286046998.5,N
1522684675.2,286046996.7,N
1522684695.0,286046997.3,N
1522684695.9,286046997.3,N
1522684715.7,286046999.1,N
1522684735.6,286046997.5,N
1522684755.4,286046998.0,N
1522684775.3,286046995.7,N
1522684795.1,286046997.4,N
1522684796.0,286046997.4,N
